This demonstration page uses our WeatherBlox Daily Observations layout. Learn more.

Left ArrowRight Arrow

Hourly Observations for November 4, 2019

Temp ( °F °C ) Dew Point ( °F °C ) Humidity (%) Winds ( mph kmh ) Pressure ( in mb ) Visibility ( mi km ) Precip ( " mm )
12:53 am 00:53 Clear 38 3.3 36 2.2 93 93 Calm 30.20 1023 10 16 0.00 0.00
1:53 am 01:53 Clear 38 3.3 35 1.7 89 89 Calm 30.21 1023 10 16 0.00 0.00
2:53 am 02:53 Clear 36 2.2 34 1.1 93 93 Calm 30.21 1023 10 16 0.00 0.00
3:53 am 03:53 Clear 36 2.2 34 1.1 93 93 Calm 30.20 1023 10 16 0.00 0.00
4:53 am 04:53 Clear 34 1.1 32 0 92 92 Calm 30.22 1023 10 16 0.00 0.00
5:53 am 05:53 Clear 36 2.2 34 1.1 93 93 Calm 30.23 1024 10 16 0.00 0.00
6:53 am 06:53 Clear 38 3.3 36 2.2 93 93 Calm 30.24 1024 10 16 0.00 0.00
7:53 am 07:53 Sunny 41 5 38 3.3 89 89 Calm 30.26 1025 10 16 0.00 0.00
8:53 am 08:53 Sunny 45 7.2 39 3.9 80 80 NE 3 6 30.28 1025 10 16 0.00 0.00
9:53 am 09:53 Mostly Cloudy 48 8.9 41 5 77 77 N 3 6 30.29 1026 10 16 0.00 0.00
10:53 am 10:53 Partly Cloudy 53 11.7 41 5 64 64 Calm 30.28 1026 10 16 0.00 0.00
11:53 am 11:53 Sunny 56 13.3 36 2.2 47 47 ESE 7 11 30.26 1025 10 16 0.00 0.00
12:53 pm 12:53 Partly Cloudy 58 14.4 36 2.2 44 44 E 10 17 30.24 1024 10 16 0.00 0.00
1:53 pm 13:53 Mostly Cloudy 60 15.6 38 3.3 44 44 E 6 9 30.20 1023 10 16 0.00 0.00
2:53 pm 14:53 Partly Cloudy 61 16.1 39 3.9 44 44 ENE 6 9 30.19 1022 10 16 0.00 0.00
3:53 pm 15:53 Mostly Sunny 61 16.1 40 4.4 46 46 ESE 8 13 30.17 1022 10 16 0.00 0.00
4:53 pm 16:53 Mostly Cloudy 60 15.6 41 5 50 50 E 6 9 30.17 1022 10 16 0.00 0.00
5:53 pm 17:53 Cloudy 58 14.4 43 6.1 58 58 ENE 3 6 30.18 1022 10 16 0.00 0.00
6:53 pm 18:53 Cloudy 58 14.4 40 4.4 51 51 E 5 7 30.19 1022 10 16 0.00 0.00
7:53 pm 19:53 Mostly Cloudy 57 13.9 41 5 55 55 ENE 5 7 30.19 1023 10 16 0.00 0.00
8:53 pm 20:53 Cloudy 57 13.9 40 4.4 53 53 ENE 5 7 30.20 1023 10 16 0.00 0.00
9:53 pm 21:53 Cloudy 56 13.3 41 5 57 57 ENE 6 9 30.21 1023 10 16 0.00 0.00
10:53 pm 22:53 Mostly Cloudy 55 12.8 42 5.6 62 62 ENE 3 6 30.22 1023 10 16 0.00 0.00
11:53 pm 23:53 Mostly Cloudy 55 12.8 41 5 59 59 NE 3 6 30.21 1023 10 16 0.00 0.00

Powered by AerisWeather